User: anonymous   Login
Location: Laura�t
(43.9341°N, 0.2497°E)
Time: 21:59:27
(UTC+00:00)
Language:

FALCON 9 DEB - Orbit

View from above orbital plane
View from above orbital plane
View from above satellite
View from above satellite

Ground track
Ground track

The orbit data is extracted from the following two-line orbital elements,

1 44295U 19029BN  21134.84541435  .00003171  00000-0  72881-4 0  9992
2 44295  53.0015 340.8401 0009824  56.8100 303.3846 15.45908754112710
Epoch (UTC): 14 May 2021 20:17:23
Eccentricity: 0.0009824
inclination: 53.0015°
perigee height: 422 km
apogee height: 435 km
right ascension of ascending node: 340.8401°
argument of perigee: 56.8100°
revolutions per day: 15.45908754
mean anomaly at epoch: 303.3846°
orbit number at epoch: 11271

The dashed part of the orbit path shows where the satellite is in the earth's shadow,  

DLR